Anticosti - western half: Past 24 Hour Conditions

 

Chevery

10:00 AM AST 20 August 2014
This table is a summary of hourly weather conditions for the past 24 hours.
Date / Time
(AST)
Wind(knots) Conditions Visibility(km) Pressure(kPa) Air tempC) Relative humidity(%) Dew pointC)
20 August 2014
10:00 NNE 15 N/A N/A 101.0 15 97 15
9:00 NNE 13 N/A N/A 101.0 15 97 15
8:00 NNE 11 gust 19 N/A N/A 100.9 15 97 14
7:00 NNE 12 gust 18 N/A N/A 100.8 14 98 14
6:00 NNE 13 N/A N/A 100.8 14 99 14
5:00 NNE 13 N/A N/A 100.7 14 100 14
4:00 NNE 11 gust 17 N/A N/A 100.7 14 99 13
3:00 NNE 16 N/A N/A 100.6 14 99 14
2:00 NNE 13 gust 19 N/A N/A 100.6 14 99 14
1:00 NNE 12 gust 20 N/A N/A 100.6 14 99 14
0:00 NNE 16 gust 27 N/A N/A 100.6 14 98 14
19 August 2014
23:00 NNE 18 gust 24 N/A N/A 100.6 14 99 14
22:00 NE 18 gust 27 N/A N/A 100.6 14 99 14
21:00 NE 19 gust 26 N/A N/A 100.5 14 99 14
20:00 NE 19 gust 27 N/A N/A 100.5 14 99 14
19:00 NE 19 gust 29 N/A N/A 100.4 14 99 14
18:00 NE 16 gust 26 N/A N/A 100.3 14 98 14
17:00 NE 18 gust 29 N/A N/A 100.3 14 98 14
16:00 NE 20 gust 27 N/A N/A 100.3 14 99 14
15:00 NE 23 gust 31 N/A N/A 100.2 14 99 14
14:00 NE 21 gust 28 N/A N/A 100.2 14 98 14
13:00 NE 19 gust 34 N/A N/A 100.2 14 99 14
12:00 NE 20 gust 28 N/A N/A 100.3 15 99 15
11:00 NE 18 gust 24 N/A N/A 100.3 15 99 15
10:00 NE 21 gust 28 N/A N/A 100.3 15 99 15
 
Map of Atlantic - Newfoundland marine weather areas Southwestern Grand Banks - 44138 Banquereau - 44139 Tail of the Bank - 44140 Nickerson Bank - 44251 Northeast Burgeo Bank - 44255 Blanc-Sablon Airport Cap Whittle Chevery Natashquan Airport Heath Point Miscou Island Grand Étang Ingonish Beach North Mountain St.Paul Island J.A. Douglas McCurdy Sydney Airport Charlottetown Airport East Point North Cape Argentia Bonavista Burgeo Cape Race Corner Brook Daniel's Harbour Englee Ferolle Point La Scie Port aux Basques Rocky Harbour Sagona Island St. Anthony Airport St. John's Int'l Airport St. Lawrence Stephenville Airport Twillingate Winterland Wreckhouse Cartwright Airport Mary's Harbour Grates Cove Pool's Island Marticot Island Long Pond Îles de la Madeleine Airport
Legend: buoyBuoy land stationLand Station